ECMWFNIL_500_spd_084.txt.gz
Wind_Speed
25 24 24 26 26 25 26 26 25 24 23 22 23 24 25 25 26 25 25 25 26 26 26 25 25 25 26 26 24 23 22 21 20 19 19 18 18 18 19 19 19 19
26 26 27 27 27 30 31 29 27 25 23 22 22 24 25 25 26 25 25 24 25 26 26 26 26 26 27 25 23 22 21 20 20 20 19 18 18 18 18 18 18 19
27 29 29 28 27 30 30 28 27 26 24 23 23 24 24 24 24 23 23 23 24 26 26 25 26 26 26 24 23 22 22 21 21 20 19 18 18 17 17 17 17 18
27 29 30 28 27 28 27 26 27 27 25 23 24 25 24 23 23 24 23 23 24 27 27 26 25 26 26 25 24 23 22 21 21 20 19 18 17 16 16 17 17 18
27 29 29 27 28 29 28 27 28 28 26 25 24 25 24 23 23 24 24 24 25 28 29 27 25 25 26 25 25 24 23 22 21 20 18 17 16 16 16 16 17 17
27 28 28 26 28 29 30 29 29 28 27 25 25 25 25 23 23 24 25 26 26 29 30 27 24 24 25 25 26 25 23 22 21 20 19 18 17 16 16 17 17 17
26 28 30 30 29 28 28 29 29 28 27 25 25 25 26 25 24 24 25 25 26 29 30 28 25 25 26 26 26 25 23 23 22 21 20 19 18 17 18 18 18 18
24 27 30 31 30 28 28 30 30 28 26 25 25 25 26 26 24 24 24 24 27 28 29 28 26 25 26 26 25 24 24 23 22 22 21 20 19 19 19 19 18 18
23 25 27 27 27 28 29 29 28 26 25 25 25 25 26 26 24 23 24 24 27 29 28 26 24 24 26 26 25 24 24 24 23 22 22 21 21 20 20 19 19 19
20 21 21 22 24 25 25 24 24 24 23 23 24 26 27 27 25 24 25 25 27 29 29 25 22 23 25 26 25 25 24 24 23 23 22 22 21 21 20 20 19 20
15 15 17 19 21 22 22 22 22 22 23 23 23 26 27 27 26 26 26 27 28 30 29 25 22 23 25 25 24 24 23 23 23 22 22 21 21 21 21 20 20 21
15 14 15 18 20 23 24 24 23 23 23 24 25 28 28 28 27 26 25 26 28 30 28 23 22 23 24 24 23 23 23 23 22 22 21 21 22 22 22 22 22 22
16 15 16 18 20 22 23 24 24 23 22 22 24 27 29 27 26 26 24 24 27 29 26 22 22 23 24 23 22 22 23 22 22 21 22 22 23 23 23 22 22 23
18 17 17 19 20 21 22 23 23 23 21 20 20 24 27 26 26 26 25 24 26 29 24 21 22 23 23 24 23 23 23 22 21 21 22 23 23 23 22 22 22 23
20 19 20 22 23 22 22 23 23 23 22 21 20 23 25 25 25 25 24 24 27 28 23 20 23 24 25 25 24 24 23 21 21 21 22 23 23 22 22 22 22 22
21 22 22 24 24 24 23 23 23 23 23 23 22 23 25 25 25 25 25 25 29 28 22 21 23 25 25 25 24 23 23 22 22 22 23 23 22 22 22 22 22 22
22 23 24 25 26 26 25 24 23 23 23 23 22 23 25 26 25 26 25 26 30 28 22 21 24 24 23 23 23 23 24 24 24 23 23 23 22 23 23 23 23 23
23 23 23 24 26 27 26 25 24 23 22 23 23 23 25 27 27 27 27 28 31 28 22 22 24 23 23 23 23 25 26 26 25 24 22 22 23 23 23 23 23 23
21 22 22 22 24 26 26 24 23 22 23 23 23 23 25 27 28 28 28 30 31 28 24 24 25 24 24 24 25 26 28 27 25 24 22 22 24 24 23 23 23 23
21 21 21 21 21 23 24 23 22 22 23 23 24 24 25 27 28 28 28 30 30 28 26 26 26 26 26 26 27 28 29 27 25 25 24 24 25 24 23 24 24 24
20 20 20 20 19 20 21 20 21 22 23 24 24 24 26 28 28 28 29 30 30 28 26 27 27 27 27 28 29 29 29 28 27 26 25 25 24 23 23 24 25 25
20 20 19 19 19 20 19 20 22 25 27 27 23 24 27 28 28 29 30 31 30 28 28 29 29 28 28 29 30 30 29 29 28 26 25 24 23 22 22 24 25 25
19 18 18 18 19 20 21 23 25 28 30 30 25 25 27 28 29 30 31 32 30 28 29 32 32 31 30 30 30 29 29 29 28 26 25 24 22 20 21 24 25 27
19 17 17 16 17 19 21 22 22 23 27 30 28 28 29 30 32 34 34 33 30 28 29 31 32 31 30 31 32 31 30 29 27 26 25 23 21 21 22 22 22 23
20 17 15 15 16 17 17 17 16 18 23 29 30 30 32 35 37 39 38 35 31 29 29 28 28 27 27 28 31 33 31 28 25 25 25 22 21 23 25 26 25 25
20 19 16 15 17 16 14 15 15 19 22 25 28 32 35 39 41 40 38 34 29 28 29 26 25 26 26 26 29 32 32 28 24 25 24 22 22 24 26 29 31 32

ECMWFNIL_500_spd_090.txt.gz
Wind_Speed
29 30 31 31 32 33 34 33 31 31 31 30 30 30 32 32 29 27 27 26 27 28 27 23 21 21 21 22 22 23 24 24 23 23 22 21 21 21 20 20 19 19
29 30 31 32 31 32 34 34 32 31 31 31 30 30 32 33 30 28 27 27 27 28 28 27 25 23 22 23 23 24 25 24 23 22 22 22 22 21 20 20 19 19
28 29 29 31 32 32 33 34 33 33 33 32 32 32 31 32 31 30 28 27 27 28 27 26 25 23 23 24 24 24 25 25 25 25 25 24 23 21 21 21 20 20
27 28 28 29 31 32 32 33 34 35 35 35 35 35 33 32 32 32 30 28 28 28 28 27 25 23 24 25 26 25 26 27 28 28 28 27 26 24 24 23 22 22
28 29 28 28 29 30 32 33 34 36 37 36 37 37 36 34 33 33 32 30 29 29 28 28 28 27 26 26 27 28 29 29 28 28 28 29 29 27 25 24 24 23
28 28 28 28 28 28 30 32 34 36 37 37 38 38 36 35 34 33 33 32 31 29 29 28 28 28 27 27 28 29 29 28 28 28 28 28 28 27 25 24 23 22
26 26 27 27 27 27 29 32 33 35 35 36 37 38 36 35 35 33 32 32 32 30 30 29 28 28 28 28 27 27 27 27 27 28 27 26 28 28 26 22 20 21
24 25 26 26 25 26 28 30 31 32 32 32 33 35 35 35 34 31 30 30 31 30 30 29 28 28 27 27 27 27 26 26 27 27 26 26 27 27 26 23 21 23
24 24 25 25 24 24 25 27 27 28 28 29 30 31 32 32 32 31 29 29 30 30 29 28 28 28 28 27 28 28 28 27 27 27 27 27 26 26 25 24 24 25
24 23 24 24 24 23 23 23 24 24 24 25 29 32 31 30 30 30 30 29 29 29 29 28 28 28 29 28 28 29 29 29 28 27 27 27 26 26 26 26 25 25
23 23 23 23 24 23 22 22 22 22 21 20 23 28 30 28 28 29 30 30 30 29 29 29 29 29 30 30 29 28 29 30 29 28 27 26 25 26 26 26 26 25
22 23 23 23 24 24 23 22 22 22 21 19 16 20 24 26 26 27 28 31 31 30 30 29 29 29 31 31 29 29 29 29 29 29 28 26 25 25 25 26 25 24
21 22 22 22 23 23 23 23 22 22 22 21 17 16 19 22 25 26 28 32 33 32 31 30 29 30 31 32 30 30 31 30 29 30 29 27 27 27 26 25 25 24
20 21 21 21 22 22 22 22 22 22 22 22 21 18 18 20 23 24 26 30 31 31 30 29 29 30 31 32 30 30 30 29 28 29 28 27 27 27 26 25 26 25
20 21 20 20 21 22 21 22 22 22 22 22 22 22 21 21 23 24 25 26 27 28 28 28 28 29 31 31 30 28 28 29 28 27 26 26 26 26 26 26 25 23
20 21 21 21 21 21 21 21 22 22 22 23 23 24 24 23 24 26 26 26 27 27 26 28 29 30 30 31 30 28 28 29 28 27 26 26 27 27 26 25 24 23
21 21 21 21 22 22 22 21 21 22 23 24 26 25 25 25 25 25 25 26 27 26 25 27 30 31 30 30 30 29 28 29 28 27 27 27 26 27 27 25 24 24
22 22 22 22 22 22 23 22 21 22 22 25 27 27 26 26 25 26 26 26 25 26 26 25 26 29 30 29 29 29 30 31 29 28 28 28 27 27 27 25 24 24
25 24 24 24 24 23 23 23 22 22 23 24 27 27 26 25 24 25 27 27 26 26 26 24 24 27 28 28 29 29 30 31 31 30 30 29 28 28 27 25 25 25
27 27 26 26 26 25 23 23 22 23 23 25 26 27 26 24 23 24 26 27 27 27 26 23 24 27 27 28 28 28 29 31 31 31 30 29 28 28 27 26 25 26
27 28 27 27 28 28 26 24 23 23 23 25 26 26 26 24 24 25 27 27 27 27 26 24 26 29 28 27 27 27 29 31 33 32 30 29 28 28 26 26 27 27
26 27 28 27 27 28 28 27 25 23 24 25 26 26 26 24 24 24 26 26 27 27 26 25 28 31 31 28 27 28 29 31 34 33 30 29 28 27 26 28 28 28
26 26 27 27 27 28 28 28 26 24 24 25 26 27 26 24 24 25 25 25 25 26 26 26 29 32 31 29 29 29 30 31 33 33 31 30 29 27 27 29 29 28
26 26 26 26 26 27 29 29 27 26 25 26 27 27 28 27 25 26 26 25 25 27 27 28 31 34 34 33 33 31 31 32 33 33 32 30 28 27 28 30 31 31
26 26 26 25 25 27 28 29 29 27 26 26 27 28 28 28 27 25 25 28 29 30 31 32 35 37 37 36 35 33 33 33 34 35 33 30 30 31 32 32 30 29
27 26 26 26 25 26 28 29 30 29 27 26 26 27 27 27 27 25 25 29 32 32 34 36 38 39 39 37 36 36 35 35 37 38 35 31 30 30 31 31 30 28

ECMWFNIL_500_spd_093.txt.gz
Wind_Speed
27 27 27 27 28 29 29 30 31 32 34 35 35 34 34 33 34 34 34 33 33 31 30 29 29 29 27 25 23 21 23 25 26 26 26 26 26 25 24 23 23 24
26 26 27 28 28 29 30 31 31 31 32 35 36 36 35 34 34 34 34 33 32 32 31 30 30 29 28 27 25 23 22 23 24 26 26 27 27 26 26 25 24 24
27 28 28 28 29 30 31 32 33 33 33 34 36 37 37 35 34 35 35 33 31 31 31 31 30 30 29 29 27 26 24 23 24 25 25 26 26 27 27 25 23 24
28 29 30 30 31 31 32 33 34 34 35 35 35 37 37 36 34 35 35 34 32 31 31 31 30 29 29 30 29 28 26 26 25 25 26 26 26 26 26 24 24 25
30 31 31 31 31 32 32 33 34 34 35 35 35 35 35 35 35 35 36 36 34 31 31 31 30 29 29 30 30 28 27 26 26 26 26 25 25 26 26 26 26 25
31 31 31 30 31 31 31 32 32 33 34 35 36 35 34 34 35 37 37 35 32 31 32 30 30 30 29 30 31 30 28 28 27 26 26 25 27 28 27 28 28 26
30 30 30 29 29 30 30 30 31 32 33 34 35 35 34 33 35 35 34 33 31 31 32 30 30 31 30 30 31 31 31 31 28 27 27 28 29 28 27 28 28 27
29 29 28 28 28 29 29 29 30 30 31 32 33 34 34 33 33 33 31 31 31 31 30 30 30 31 32 32 32 32 33 32 29 29 29 29 29 27 26 28 28 27
28 28 28 28 28 28 28 29 29 29 29 30 31 32 33 32 31 30 30 31 31 29 29 30 31 31 32 33 33 33 34 32 30 29 29 28 28 27 26 27 27 26
28 28 28 28 28 28 28 28 28 28 28 27 29 30 31 31 29 28 28 30 30 29 29 30 31 31 30 31 32 33 33 32 30 29 28 27 27 28 27 26 27 29
28 28 28 28 28 28 27 27 27 27 26 26 27 28 29 28 27 26 27 29 30 29 30 30 30 29 30 30 31 32 32 32 31 28 27 28 28 28 28 27 28 29
28 27 27 27 27 27 27 26 27 26 26 25 25 26 28 28 25 23 24 28 31 30 29 29 29 28 30 31 31 31 33 33 32 29 28 29 29 28 28 28 29 29
27 27 26 26 26 27 27 26 26 26 25 25 24 24 26 28 26 23 20 22 28 30 29 30 29 28 30 31 31 31 33 33 33 32 30 29 28 28 28 30 29 29
26 25 24 24 25 26 26 26 26 26 25 24 24 23 24 27 28 25 22 21 24 29 30 30 30 29 30 29 29 30 32 33 33 32 30 29 29 29 30 31 30 29
25 24 23 23 23 25 26 26 26 26 26 25 24 24 24 25 27 26 25 23 23 28 30 29 29 30 29 27 27 28 30 33 33 32 31 30 31 31 32 32 31 29
25 24 24 23 23 25 26 26 27 27 27 27 26 25 25 26 27 27 27 26 24 25 28 28 27 29 29 29 29 29 30 32 32 32 31 30 31 32 32 31 30 29
26 25 26 25 25 26 27 27 28 29 29 28 27 26 26 26 27 27 28 28 26 25 26 27 27 28 30 30 29 29 31 31 31 31 31 28 28 29 28 28 29 29
27 27 27 28 28 28 28 29 29 30 30 30 29 28 27 27 27 27 28 29 28 26 25 27 28 28 29 29 29 29 31 31 30 30 29 26 25 26 26 27 28 28
29 29 29 30 31 31 31 31 31 30 31 31 30 29 28 27 27 27 28 29 29 27 27 28 29 28 28 28 28 29 30 31 30 29 27 26 25 27 28 27 27 27
31 31 32 32 33 33 33 33 32 32 31 31 30 29 28 28 28 27 28 28 28 28 28 29 29 29 29 28 28 29 29 30 29 28 27 27 27 29 29 27 26 28
33 33 34 34 34 34 34 33 32 32 32 31 30 29 28 28 27 27 28 29 29 28 27 28 28 29 29 28 28 29 27 27 28 28 27 28 28 30 31 29 27 28
35 35 35 34 34 34 34 33 32 32 31 31 30 28 27 27 27 28 28 29 30 29 27 27 28 30 30 29 29 28 26 25 26 27 28 29 30 31 31 29 27 27
35 34 34 33 33 33 33 32 32 32 31 30 30 28 27 27 27 28 29 30 31 31 30 29 29 30 31 28 27 28 26 25 26 27 29 29 30 31 32 30 29 28
33 32 31 31 31 32 32 31 31 31 31 31 30 29 28 27 28 28 29 30 31 31 31 30 29 30 31 28 27 27 27 27 28 29 30 31 31 33 35 35 34 34
34 32 32 32 32 32 32 32 31 32 32 32 31 31 30 29 28 28 29 29 29 30 30 29 28 28 29 28 28 30 31 32 32 30 30 31 31 33 35 36 38 38
36 35 34 34 33 32 32 33 33 33 33 34 33 32 32 31 29 28 28 28 27 29 28 26 26 28 30 30 30 33 35 36 35 31 30 31 33 35 36 35 37 37

ECMWFNIL_500_spd_096.txt.gz
Wind_Speed
19 20 22 23 24 24 25 27 27 28 29 30 30 31 31 32 32 33 33 33 32 32 32 30 29 29 28 27 27 27 27 26 26 25 23 22 22 23 23 23 22 21
21 22 23 24 25 26 27 29 29 29 30 31 32 32 32 32 33 33 34 34 35 34 33 31 30 29 28 28 27 27 27 26 26 26 24 22 21 23 24 23 22 21
22 23 24 25 26 27 28 29 29 29 30 31 33 33 33 33 33 33 34 34 35 35 34 33 31 29 28 27 26 27 27 26 26 27 26 23 21 22 24 24 23 22
24 24 25 25 27 28 28 28 29 29 29 31 32 33 33 34 33 33 33 34 35 35 35 34 33 31 28 27 27 27 27 27 27 28 27 25 23 23 24 24 23 22
25 25 26 26 27 28 28 27 27 28 29 30 31 32 33 33 33 33 33 34 34 34 35 35 34 33 31 28 26 26 26 27 28 29 28 25 24 24 24 24 23 23
26 26 26 27 28 28 27 27 27 28 29 30 31 32 32 32 32 33 34 34 35 35 35 35 33 33 34 33 29 27 27 27 28 28 28 27 25 25 26 26 25 25
26 27 27 28 28 27 26 27 27 28 29 30 30 31 31 31 31 32 33 35 36 36 36 35 34 32 33 34 32 29 28 28 27 27 28 29 28 28 28 27 26 25
27 27 27 28 27 26 26 27 28 29 29 29 30 30 30 30 30 31 32 33 35 37 37 35 33 30 28 31 32 31 30 28 28 28 28 30 31 30 28 27 27 26
27 27 28 27 27 26 27 27 28 29 29 29 29 29 29 29 29 30 31 32 34 35 36 34 30 27 26 28 31 31 30 29 29 29 29 29 31 31 29 28 28 28
28 28 28 28 27 27 27 28 28 28 28 29 29 29 28 28 29 29 30 31 32 33 33 32 28 25 25 28 30 29 28 29 30 31 30 29 30 31 30 29 28 29
28 29 29 29 28 28 28 28 28 28 27 28 29 29 29 28 28 29 29 29 30 31 31 30 27 25 25 27 29 29 29 30 30 31 30 29 29 30 30 29 28 28
29 29 30 30 29 29 28 28 28 28 27 27 28 29 29 28 28 29 29 29 29 30 31 30 29 26 26 28 28 30 30 29 29 30 30 29 28 29 29 28 27 28
30 30 31 31 30 30 29 29 29 28 28 28 28 29 29 29 28 29 29 29 29 29 30 31 31 29 27 28 30 30 29 28 28 28 28 29 28 28 28 28 28 29
30 31 31 31 30 30 29 29 29 30 30 30 29 29 30 30 30 30 30 30 29 28 29 30 31 30 28 26 27 28 28 27 27 27 27 28 29 28 27 28 29 30
31 31 31 31 30 30 30 30 30 31 31 31 31 31 31 32 33 32 31 30 30 28 28 29 30 31 29 26 24 25 27 27 27 27 27 28 30 29 28 29 29 30
32 32 32 31 31 31 30 31 31 32 32 32 33 34 34 35 35 34 33 31 30 29 28 29 30 30 29 27 24 24 25 26 27 27 27 27 29 30 30 30 31 31
32 32 32 32 32 32 31 32 32 33 33 33 34 36 37 37 36 35 34 32 31 29 28 28 28 30 29 27 25 23 23 25 27 28 29 28 28 28 30 32 32 32
33 33 33 32 32 32 32 33 33 33 34 34 35 36 37 37 36 35 34 32 31 30 29 28 28 29 30 29 26 23 22 24 27 29 30 30 27 27 29 32 32 32
33 32 32 32 32 33 33 33 34 34 34 35 36 37 37 37 36 35 34 32 30 29 27 27 27 29 30 29 27 23 22 25 27 29 30 29 27 27 28 29 30 31
33 33 33 33 33 34 34 34 35 35 35 35 36 37 38 37 36 35 34 32 30 28 26 26 27 28 29 28 26 24 23 25 27 28 28 28 26 27 27 27 28 29
34 34 34 34 34 35 35 36 36 36 37 37 37 37 38 37 35 34 33 32 30 28 27 27 27 27 28 28 27 26 25 25 25 26 28 27 26 27 28 28 28 28
35 35 35 35 35 36 36 37 37 37 37 37 37 37 37 36 35 33 32 31 30 29 28 27 28 28 27 28 28 27 27 26 25 27 28 27 27 28 30 30 29 28
35 35 36 36 36 37 38 38 38 38 38 37 37 36 35 35 34 32 31 31 30 30 29 28 28 28 27 29 28 25 26 27 26 27 27 26 26 28 30 30 29 29
36 36 36 37 38 38 39 39 40 40 39 38 37 36 35 35 35 33 32 32 31 30 29 28 28 27 27 28 26 24 25 27 27 27 26 24 24 27 28 29 29 29
38 38 39 39 40 40 40 41 41 41 40 39 38 37 35 35 36 35 34 34 33 31 29 28 27 26 26 26 27 26 26 26 26 26 25 24 25 26 27 28 29 30
39 40 40 40 41 41 41 41 41 41 40 39 39 38 36 36 36 36 35 35 34 32 30 28 26 25 24 24 26 26 25 26 28 28 27 27 28 29 29 28 28 29

ECMWFNIL_500_spd_099.txt.gz
Wind_Speed
18 18 18 18 18 18 19 20 21 21 21 21 22 22 23 24 26 27 28 29 30 32 31 30 30 30 30 29 29 31 31 31 29 28 27 26 24 24 22 21 21 22
18 19 19 19 19 20 21 21 22 22 22 22 22 22 23 24 26 28 29 30 30 31 31 31 30 30 30 29 29 30 32 32 30 29 28 26 25 24 23 21 22 23
19 19 19 20 20 21 22 22 22 23 23 23 23 23 24 25 27 29 30 31 31 30 31 31 31 31 31 30 30 30 32 32 31 30 29 26 25 25 24 24 23 24
20 20 20 21 21 22 23 23 23 23 24 24 24 25 26 27 29 30 30 31 31 30 30 30 30 31 32 32 30 29 31 32 31 31 30 27 25 25 25 24 23 23
21 21 21 22 22 23 23 23 24 24 24 24 25 25 26 28 29 30 30 30 31 30 29 29 29 31 33 33 30 28 30 31 30 31 30 28 27 25 24 24 23 23
21 22 22 23 23 23 24 24 24 25 25 25 25 26 26 28 29 29 30 30 30 30 29 29 29 31 33 34 32 28 29 29 28 29 29 28 28 25 24 24 24 24
23 23 24 24 24 24 24 25 25 26 26 26 26 26 26 27 28 29 29 29 29 29 29 29 30 31 32 34 33 29 28 27 26 27 29 30 28 26 25 25 25 25
25 25 25 25 25 25 25 26 26 27 27 27 27 26 26 26 27 28 28 28 28 29 29 30 30 31 32 33 33 31 28 26 26 26 28 30 29 27 26 26 27 26
26 26 26 26 25 25 26 27 27 28 28 28 27 27 26 25 26 27 27 27 28 29 29 30 30 30 31 32 31 31 28 26 25 23 24 28 28 27 26 27 27 27
27 27 27 27 26 26 27 27 28 28 28 28 27 27 26 26 26 27 27 27 27 28 29 30 30 30 30 31 31 30 28 25 23 23 23 25 27 27 27 27 28 27
28 29 28 27 27 27 28 28 29 29 29 28 28 27 26 26 27 28 28 27 28 29 30 30 30 30 30 31 31 30 28 25 22 23 24 24 25 26 26 26 27 29
29 30 29 29 28 28 29 29 29 29 30 29 28 27 27 27 27 28 29 29 30 31 32 32 31 30 30 30 31 30 28 26 22 22 23 24 25 25 26 26 27 29
31 31 30 30 29 30 30 30 30 30 31 30 30 29 28 28 28 29 30 31 31 32 33 32 31 30 29 30 30 30 29 26 23 21 23 25 25 25 26 26 27 28
32 32 31 31 31 31 31 30 31 31 32 32 31 31 30 29 30 30 30 31 32 32 32 32 31 30 29 29 29 30 29 26 23 20 21 23 24 25 25 26 26 27
33 33 33 32 32 32 32 32 32 33 33 33 32 32 31 31 31 30 31 31 31 32 32 32 31 30 29 28 28 29 29 27 24 21 20 21 22 24 25 25 25 25
34 34 34 33 33 33 33 33 34 34 34 33 33 32 32 32 32 31 31 31 31 32 32 32 31 30 28 27 27 28 28 27 26 24 22 20 20 22 24 24 25 25
35 35 34 34 34 34 34 35 35 35 34 34 33 33 32 32 32 32 32 32 32 32 33 32 31 29 28 26 26 28 28 27 26 24 22 22 21 22 23 24 24 25
35 35 35 35 34 34 35 35 35 35 34 34 34 33 33 33 33 33 33 33 33 33 33 32 31 29 28 26 26 28 28 27 27 25 23 23 22 22 22 23 24 25
35 35 35 35 35 35 35 36 36 35 35 35 35 34 34 34 33 33 33 33 33 33 32 32 31 29 28 27 26 28 29 28 28 27 24 22 22 22 23 23 24 25
35 35 35 35 36 36 36 36 36 36 36 36 36 36 35 35 35 34 34 34 33 33 32 31 31 29 29 28 27 29 30 28 28 27 25 22 22 22 23 23 23 24
34 35 35 36 36 37 37 37 37 37 37 37 37 37 37 37 37 37 36 36 34 33 32 31 31 30 29 29 28 28 30 29 28 26 24 23 23 23 22 22 23 24
35 35 35 36 36 37 37 37 37 38 38 38 38 39 39 39 39 39 39 38 36 34 32 31 31 31 30 29 29 28 29 29 27 24 23 23 23 23 23 24 25 25
35 36 36 36 37 37 37 38 38 38 39 39 39 40 41 41 41 41 40 40 38 36 34 32 32 32 32 31 30 29 28 29 27 24 22 22 24 23 23 23 24 25
36 36 37 37 38 38 38 39 39 40 40 40 40 41 42 42 42 42 41 40 39 37 35 33 32 32 33 32 30 29 28 28 28 25 22 22 23 24 23 23 23 23
37 37 38 38 39 39 39 39 40 40 40 41 41 41 42 42 42 42 41 40 39 37 36 35 34 33 33 32 30 29 28 27 27 26 23 21 21 21 22 21 21 21
38 38 39 39 40 41 41 42 42 42 42 42 42 43 43 43 43 42 41 40 39 37 36 36 35 33 33 32 30 28 27 27 27 25 23 22 20 20 20 20 21 22

ECMWFNIL_500_spd_102.txt.gz
Wind_Speed
20 20 20 20 20 20 21 21 20 20 19 19 19 19 18 18 19 20 21 23 24 25 25 26 26 26 27 28 28 27 27 27 28 29 30 30 30 29 29 30 31 30
21 21 21 21 21 21 21 22 21 21 20 19 19 18 18 19 19 20 22 24 25 25 25 26 26 26 27 27 28 27 27 27 27 29 30 30 30 30 29 30 30 31
22 22 22 22 22 23 22 22 22 22 21 20 19 18 18 19 20 21 22 24 24 25 25 25 26 26 26 27 27 27 27 28 28 29 30 30 31 30 29 29 29 31
23 23 23 23 23 24 24 23 23 23 23 22 21 19 18 19 21 22 22 23 23 24 24 25 25 26 26 27 28 28 28 28 29 29 30 30 29 29 29 28 28 30
23 23 23 23 24 24 24 24 24 25 24 23 21 19 19 19 21 22 22 23 23 23 24 24 25 25 26 27 28 29 29 29 30 30 30 29 28 28 27 27 27 28
24 23 23 24 24 25 25 25 25 25 25 24 22 21 20 20 21 21 22 23 23 24 24 24 24 25 25 27 28 30 30 31 31 30 30 30 28 27 26 25 25 27
25 24 24 24 25 25 25 25 26 26 26 25 24 22 21 21 21 21 21 22 24 25 25 25 25 25 26 27 29 30 31 31 31 31 30 29 29 28 27 26 26 26
26 25 25 25 26 26 26 26 27 27 27 27 26 24 23 22 21 21 21 22 23 25 26 26 26 27 28 29 30 31 31 32 32 31 30 29 29 28 28 27 27 26
27 26 26 27 28 28 28 28 28 29 28 28 28 27 25 24 23 22 21 22 23 25 26 27 28 29 30 30 30 31 31 31 32 31 31 30 29 28 27 27 28 28
27 27 28 28 29 29 30 30 30 30 30 30 29 28 27 27 25 23 22 22 24 25 27 28 29 30 30 30 30 30 31 31 31 31 31 30 30 27 26 26 26 28
29 29 30 30 30 31 32 32 32 32 31 31 31 30 29 28 27 26 24 24 25 26 27 29 29 30 29 29 29 29 30 30 30 31 31 30 30 28 27 27 26 26
30 31 31 31 32 33 34 34 34 34 33 32 32 32 31 30 30 29 27 26 26 27 28 28 29 29 29 28 28 29 30 30 30 30 31 31 31 29 27 28 27 25
32 32 33 33 33 34 35 35 35 35 35 34 34 34 33 32 32 31 30 29 28 28 28 28 29 29 28 28 28 28 29 30 30 30 30 31 31 30 28 27 27 26
34 34 34 34 35 35 36 36 37 36 36 35 35 35 34 33 33 33 32 31 30 29 29 28 29 29 29 28 28 29 29 30 29 30 30 31 30 30 29 26 26 27
35 35 35 35 35 36 37 37 37 37 37 36 36 36 35 35 34 34 33 32 31 30 29 29 29 29 29 29 29 29 29 30 29 30 31 31 30 30 30 27 25 26
37 36 36 36 36 37 37 38 38 38 37 37 36 36 36 36 35 35 34 33 33 32 31 30 30 30 30 30 29 29 29 29 29 29 30 32 31 31 31 29 25 24
38 37 37 38 38 38 38 38 38 38 37 37 37 36 36 36 36 35 35 34 34 34 33 32 31 31 31 31 30 29 29 29 29 29 30 31 32 31 31 29 26 23
38 38 38 38 38 38 39 39 38 38 38 37 37 37 37 36 36 36 35 35 34 34 34 34 34 33 32 32 32 30 29 29 29 29 29 30 31 30 29 29 26 24
38 38 38 38 38 38 38 38 38 38 37 37 37 37 37 37 36 36 36 35 35 35 35 35 36 35 35 34 33 31 30 29 29 29 28 29 30 29 27 27 27 25
38 38 38 38 38 38 38 38 38 38 37 37 37 37 37 37 37 36 36 36 36 36 36 36 37 37 36 35 33 32 30 30 30 29 28 28 29 28 26 25 26 26
38 38 38 38 38 38 38 38 38 38 37 37 37 37 37 37 37 37 37 37 37 37 38 37 37 37 36 35 34 32 31 30 30 30 29 28 29 29 27 25 26 26
39 38 38 38 38 38 39 39 39 38 38 37 37 37 37 37 37 37 37 37 37 38 38 38 37 37 36 35 34 32 31 30 30 31 30 29 29 29 27 25 26 26
38 38 38 38 39 39 39 39 39 39 39 39 39 39 38 38 39 39 39 38 38 38 38 39 38 37 37 35 34 33 32 31 30 31 31 30 29 29 28 25 26 27
38 38 39 39 39 40 40 40 40 41 41 41 40 40 40 40 40 41 41 40 40 39 40 40 40 39 37 36 34 33 32 31 30 31 32 31 29 30 28 25 25 27
38 38 38 39 39 39 39 40 40 41 41 42 42 41 41 42 42 42 42 42 42 41 41 42 41 40 39 37 35 33 32 32 31 31 32 31 30 30 29 26 26 27
38 37 37 38 38 38 38 39 39 39 40 41 41 42 42 42 42 43 43 43 43 42 41 41 41 41 39 38 36 35 34 33 32 32 32 31 31 31 30 28 27 29

ECMWFNIL_500_spd_108.txt.gz
Wind_Speed
21 21 21 22 22 22 23 23 24 24 24 24 24 24 24 24 24 24 25 25 25 25 25 25 25 25 25 25 24 24 25 25 26 27 27 27 28 28 28 29 29 29
22 22 22 22 23 23 24 25 25 25 25 25 25 25 25 25 26 26 26 26 26 25 25 25 26 26 26 26 25 25 26 26 26 27 28 28 29 30 30 30 29 30
22 22 22 23 24 25 25 26 26 26 26 26 26 26 27 27 27 27 27 27 26 26 26 26 26 27 28 28 27 27 27 27 27 28 28 29 30 30 30 30 29 29
22 22 23 24 25 26 26 26 26 26 26 27 27 27 28 28 28 28 27 27 27 26 26 27 27 28 29 29 29 28 28 29 28 28 29 29 30 30 30 30 29 29
23 24 25 26 26 26 26 26 26 27 27 27 28 28 29 29 29 28 28 27 27 27 27 27 28 29 29 30 30 30 30 30 30 29 29 29 30 30 30 30 29 29
25 26 26 27 26 26 26 26 26 27 27 28 28 29 30 30 30 30 29 29 28 28 28 28 29 29 30 31 31 31 32 32 32 31 30 30 30 30 30 31 30 29
26 27 28 28 28 28 28 27 27 27 28 28 29 29 30 31 32 32 31 31 30 30 30 30 30 30 31 32 32 33 33 33 33 32 32 31 30 30 31 31 31 30
28 29 29 30 30 29 30 30 29 29 29 29 29 30 31 31 32 33 33 33 33 32 32 32 31 31 32 32 33 33 34 34 34 34 33 32 31 30 31 31 31 31
29 30 30 31 31 31 31 32 32 32 31 31 31 31 31 32 32 33 33 34 34 34 34 33 33 33 33 33 34 34 35 35 35 35 34 34 32 31 31 31 32 31
30 30 31 32 32 32 32 33 33 34 33 33 33 33 33 33 33 33 33 34 34 35 35 35 35 35 35 35 35 35 35 35 36 36 35 35 34 32 31 32 32 32
30 31 32 32 32 33 33 34 35 35 35 35 34 35 35 34 34 33 33 33 34 34 35 35 36 36 36 36 36 37 36 36 36 36 36 35 35 34 33 32 32 33
31 32 33 33 33 34 34 35 35 36 36 36 36 36 36 36 35 35 34 34 34 35 35 35 36 36 37 37 37 37 38 37 37 36 36 35 35 34 34 33 33 33
32 33 34 34 34 34 35 35 36 37 37 38 38 38 37 36 36 36 35 35 36 36 36 37 37 37 37 38 38 38 38 38 38 37 36 36 35 35 34 34 34 34
33 34 34 34 35 36 36 36 37 37 38 39 39 38 37 36 36 36 36 37 37 37 38 38 39 39 39 39 39 39 39 39 38 37 36 36 36 36 35 35 35 35
34 35 35 35 37 37 37 37 37 38 39 39 38 37 37 36 36 36 37 38 38 38 39 39 40 40 41 41 40 40 40 40 39 38 37 36 36 36 36 36 36 36
36 36 37 37 38 38 38 38 38 39 39 38 37 37 37 37 37 37 38 38 39 40 40 41 41 41 42 42 42 41 40 40 40 39 38 37 36 36 36 36 37 37
37 37 38 39 39 39 39 39 39 40 39 38 37 37 37 37 37 38 38 39 40 40 41 42 42 42 42 42 42 42 41 40 40 39 39 38 37 37 36 37 38 38
37 38 40 41 41 40 40 40 40 40 39 38 38 37 37 38 38 38 39 40 40 41 41 42 42 43 43 43 42 42 41 41 40 40 40 39 38 38 37 37 38 38
38 40 41 41 42 41 41 41 40 39 39 38 38 38 38 38 38 39 39 40 41 41 42 42 42 42 42 42 43 42 42 41 41 40 40 40 40 40 39 39 38 38
39 41 41 42 42 42 42 41 40 39 39 38 38 38 38 39 39 40 40 40 41 41 41 41 41 41 42 42 42 42 42 42 42 41 41 41 41 41 41 40 39 38
40 41 41 42 42 42 42 40 40 39 38 38 38 39 40 40 41 41 41 41 41 41 41 41 42 42 42 42 42 42 42 42 42 42 42 42 42 42 41 41 40 39
40 41 41 42 42 41 41 40 39 38 38 38 40 41 41 42 42 42 42 42 42 43 43 44 44 44 44 44 44 44 43 43 42 42 42 42 42 42 41 41 40 39
40 40 40 41 41 40 39 39 38 38 39 41 42 42 42 42 43 43 44 44 45 46 47 48 48 48 48 48 47 47 46 45 44 43 42 42 42 42 41 40 39 39
39 39 39 39 39 39 38 38 39 40 41 43 43 43 43 43 44 45 46 47 48 49 49 50 51 51 51 51 50 50 49 48 47 46 44 43 42 42 41 40 39 39
38 38 38 38 38 38 38 39 40 41 42 43 43 44 45 46 46 47 48 48 49 49 49 50 50 51 51 51 51 51 50 50 49 48 47 45 44 42 42 40 39 38
37 37 37 37 37 38 39 40 41 42 42 43 44 45 45 46 46 47 47 47 48 48 49 49 50 50 51 51 51 51 52 51 51 49 48 47 46 44 43 42 40 39

ECMWFNIL_500_spd_111.txt.gz
Wind_Speed
19 18 18 18 19 19 20 21 21 22 22 23 23 24 24 24 24 25 25 25 26 26 27 27 28 28 28 29 29 29 29 29 29 30 30 30 29 29 29 29 29 29
19 18 18 18 19 19 20 21 22 22 22 23 24 25 25 25 25 25 26 26 27 28 28 29 29 29 29 29 29 29 30 30 30 30 31 31 31 30 30 31 31 31
19 19 19 19 19 20 20 21 22 23 23 24 25 26 26 26 26 26 27 28 28 29 30 30 30 30 30 30 29 29 30 30 30 31 31 32 32 32 32 32 32 32
19 19 20 20 20 21 21 22 23 24 24 24 25 26 26 26 26 27 28 29 30 30 31 31 31 31 31 31 30 30 30 30 31 31 32 32 32 32 32 33 33 33
20 20 21 22 21 21 22 23 24 25 25 26 26 27 27 27 26 27 28 29 30 31 32 33 33 33 33 32 32 32 32 32 32 32 32 32 33 33 33 33 34 34
21 21 22 22 22 23 24 25 26 27 27 28 28 29 29 28 28 28 29 29 30 31 31 33 34 34 34 34 34 34 34 34 34 34 34 34 34 34 34 35 35 35
22 23 23 23 24 24 26 27 28 29 29 29 30 30 30 30 30 30 30 31 31 31 32 32 33 34 34 34 35 35 35 35 35 35 35 35 35 35 35 35 36 36
23 24 24 25 25 26 28 29 30 30 30 30 30 31 31 32 32 32 32 32 32 32 32 32 33 33 33 34 34 34 35 35 35 35 35 35 36 36 36 36 36 36
25 25 25 26 26 28 30 31 31 31 31 31 31 32 33 33 34 33 33 33 33 33 33 33 34 33 33 33 33 34 34 34 35 35 35 35 35 36 36 36 36 37
26 26 26 27 28 30 31 31 32 32 32 32 32 33 34 35 35 36 35 35 35 35 35 35 35 35 35 34 34 34 34 35 35 35 36 35 35 36 36 37 37 37
28 28 29 29 30 31 31 31 32 33 33 33 34 35 35 36 37 37 38 38 38 37 37 36 36 36 36 36 35 35 35 36 36 36 36 37 37 37 37 37 37 37
29 30 31 31 31 31 31 32 33 34 34 34 35 36 37 38 38 39 39 39 39 39 39 38 37 37 36 36 36 36 36 37 37 37 37 38 38 38 38 38 38 38
30 31 31 31 31 31 33 34 35 35 35 35 36 37 38 39 39 40 40 40 40 40 40 39 38 37 37 37 37 37 37 37 38 38 38 39 39 39 39 39 39 39
30 31 32 32 32 33 35 36 36 37 37 36 37 38 39 40 40 40 40 40 40 40 40 39 39 38 37 37 37 38 38 38 39 39 39 39 39 39 40 40 40 40
31 32 33 34 34 35 37 37 38 38 38 38 38 39 40 40 41 41 40 40 40 39 39 39 39 38 38 38 38 38 38 39 39 40 40 40 40 40 40 40 40 40
32 33 34 36 36 37 39 39 39 39 39 39 39 40 41 41 41 40 40 39 39 39 39 39 38 38 38 38 38 38 38 39 39 39 40 40 40 40 41 41 40 40
34 35 36 37 38 39 41 41 40 40 40 40 40 41 41 41 41 40 40 39 39 39 39 39 39 39 39 40 40 40 40 40 39 40 40 40 40 40 40 41 41 41
36 37 38 39 40 41 41 41 40 40 40 41 41 41 41 41 40 40 40 40 40 40 40 40 40 41 41 41 41 42 42 42 42 41 42 42 41 41 41 41 42 42
38 39 39 40 41 41 41 40 40 40 41 41 41 41 40 40 40 41 40 40 41 41 41 42 42 42 42 43 43 44 44 44 44 44 44 44 44 44 43 43 43 43
39 39 40 41 41 40 39 39 40 41 41 41 41 40 40 40 40 41 41 41 41 42 42 42 43 44 44 45 45 46 46 47 47 47 48 48 48 47 47 46 46 45
39 40 40 40 39 39 38 39 40 40 40 40 40 40 40 40 41 41 42 42 42 43 43 44 45 45 46 46 47 47 48 48 48 48 49 49 49 49 49 49 48 48
39 39 39 38 37 37 37 38 38 38 38 38 39 40 40 40 41 41 42 42 43 44 44 45 45 46 46 46 47 47 48 48 48 48 48 48 48 49 49 49 49 49
37 36 35 35 35 36 36 37 36 37 37 38 39 39 39 40 40 41 41 42 43 43 44 44 45 45 45 46 46 47 48 48 49 49 49 49 49 48 48 48 48 48
33 32 33 34 34 34 35 35 35 36 37 37 38 38 38 38 39 40 41 41 42 42 42 43 43 43 44 45 45 46 47 48 49 49 50 50 50 50 49 49 49 48
29 30 31 32 32 32 33 34 34 35 35 35 36 36 37 38 38 39 39 40 40 40 40 40 41 42 42 43 44 45 46 47 48 49 49 50 50 50 50 50 51 50
28 29 29 30 31 31 32 32 33 33 33 34 35 35 36 37 37 38 38 38 38 38 38 39 40 41 42 43 44 45 45 46 47 47 48 48 49 50 50 50 51 51

ECMWFNIL_500_spd_114.txt.gz
Wind_Speed
20 20 19 19 20 20 19 19 19 19 19 19 20 21 21 21 21 22 23 23 24 24 25 25 26 27 27 28 28 29 29 29 30 30 31 31 31 31 31 31 31 31
20 20 19 19 20 19 19 19 19 19 19 20 21 21 21 21 22 23 24 25 25 25 25 26 26 27 28 29 29 30 30 31 31 31 31 32 32 32 32 32 32 32
21 20 20 20 19 19 19 19 19 19 19 20 21 21 22 22 23 24 25 26 27 27 27 27 27 27 28 29 29 30 31 32 32 32 33 33 33 33 33 34 34 34
22 20 20 20 20 20 20 19 19 20 21 21 22 22 22 23 24 25 27 28 28 28 28 29 29 29 29 29 30 30 31 32 32 33 34 35 35 35 36 36 36 37
22 21 20 21 21 21 20 20 21 21 22 22 22 23 24 25 26 27 28 28 28 28 29 29 30 30 30 31 31 31 31 32 32 33 33 34 35 36 36 37 37 38
22 21 21 21 22 22 21 21 22 23 23 23 24 25 26 27 28 28 29 29 29 29 30 30 30 31 31 31 32 32 32 33 33 33 33 34 35 36 36 36 37 38
23 22 22 22 23 23 23 23 24 24 24 25 26 27 28 29 29 29 30 30 30 31 31 32 32 32 32 32 33 33 33 34 34 35 35 35 35 35 36 36 36 37
24 23 23 24 24 24 24 24 25 25 26 26 27 29 30 30 30 31 31 31 32 32 33 33 33 33 33 34 34 34 35 35 35 36 36 36 36 36 36 36 36 36
24 24 25 25 25 25 25 26 26 26 27 28 29 31 31 32 32 32 33 33 34 34 35 35 35 35 35 35 35 35 36 36 36 37 37 37 37 37 37 37 36 37
25 26 26 26 26 26 26 26 26 27 28 30 31 32 33 33 34 34 34 35 35 36 36 37 37 37 37 36 36 36 36 37 37 37 37 38 38 38 38 38 38 38
27 27 27 26 26 26 27 27 28 29 30 31 33 33 34 35 36 35 36 36 36 37 37 38 38 38 37 37 37 37 37 37 37 38 38 38 39 39 39 39 39 40
26 27 27 27 27 27 28 28 29 30 32 33 34 34 35 37 37 38 37 37 38 38 38 38 38 38 37 37 37 37 38 38 38 39 39 40 40 40 40 40 40 40
25 26 27 27 27 28 28 29 31 32 33 34 35 36 37 38 39 40 39 39 39 39 39 39 39 38 37 37 37 38 39 39 40 40 40 41 41 41 41 41 40 40
24 25 26 27 27 28 29 30 32 33 34 35 36 38 39 40 41 41 41 40 40 40 40 39 38 38 38 38 38 39 40 40 41 41 41 41 42 41 41 41 42 41
24 25 26 26 27 28 29 31 33 35 36 37 38 39 40 42 43 42 41 41 41 40 40 39 39 38 38 39 39 40 41 41 42 42 42 42 42 42 42 42 43 43
25 25 25 26 27 28 30 32 34 36 37 38 40 41 42 43 43 42 41 41 41 41 40 39 39 39 40 40 41 42 42 42 42 42 43 43 43 43 43 43 44 44
25 26 26 27 28 29 31 33 36 38 39 40 41 42 44 44 43 42 41 41 41 40 40 40 40 41 41 42 43 43 43 43 43 43 43 44 44 45 45 46 46 46
26 26 27 28 29 31 33 35 37 39 40 42 43 44 44 43 41 41 41 41 41 40 40 40 41 42 42 43 43 43 43 44 44 44 45 45 46 47 47 47 48 48
26 26 28 29 31 33 35 37 39 40 41 43 44 44 42 41 41 41 41 40 40 40 40 41 41 42 42 43 43 43 44 45 45 46 46 46 47 48 48 48 49 49
27 27 28 30 32 34 36 38 39 41 43 44 43 41 40 40 40 40 40 39 39 39 39 40 40 41 42 42 43 44 44 45 46 46 47 47 48 48 49 49 49 49
27 28 29 30 32 34 36 38 40 42 42 41 39 38 38 39 39 39 38 38 38 38 38 39 39 40 41 42 43 43 44 45 46 46 47 48 48 49 49 49 50 50
29 29 30 31 32 34 36 38 40 39 38 36 36 37 38 38 38 37 36 36 36 36 37 38 39 40 40 41 42 43 43 44 45 46 46 47 48 49 50 50 51 51
30 30 31 32 33 35 36 37 36 34 33 34 36 36 36 35 34 34 34 34 35 35 36 37 38 39 39 40 41 42 42 43 44 45 46 47 48 49 49 50 51 51
30 31 32 34 35 35 34 32 31 31 32 34 34 34 33 32 31 32 32 33 34 35 36 37 37 38 38 39 39 40 41 41 42 43 45 46 47 48 48 49 50 50
31 32 33 32 31 29 28 28 29 31 32 32 31 30 30 29 30 31 31 32 33 34 35 35 35 36 36 37 38 38 39 40 41 42 43 44 45 46 47 47 48 49
31 29 27 25 24 25 26 28 29 29 29 28 28 28 28 29 29 30 31 32 32 32 33 33 34 34 35 35 36 37 38 39 40 41 41 42 43 43 44 45 45 45

ECMWFNIL_500_spd_117.txt.gz
Wind_Speed
24 24 24 25 25 24 24 24 23 22 22 22 21 21 21 21 21 22 22 23 23 23 23 24 24 25 25 26 26 26 26 26 27 27 27 28 29 29 30 30 31 31
25 25 25 25 25 25 25 24 24 23 23 22 21 21 21 21 22 23 24 24 25 25 25 26 26 27 27 28 28 28 29 29 29 29 29 29 30 30 30 31 31 32
26 25 25 25 26 26 26 25 25 24 23 23 22 21 21 22 23 24 25 26 26 27 27 28 28 29 29 29 30 30 30 31 31 31 31 31 31 31 31 32 32 33
26 25 25 26 26 26 26 26 25 24 24 23 22 22 22 23 24 25 26 27 28 28 28 29 29 30 30 31 31 31 32 32 32 33 33 33 33 33 33 33 33 34
26 26 26 26 27 27 27 26 26 25 24 23 23 23 23 24 25 26 27 28 28 29 29 29 30 30 31 31 32 32 33 33 34 34 34 34 34 35 35 35 35 35
27 27 27 27 28 28 28 28 27 25 25 24 24 24 24 25 27 27 28 28 29 29 29 30 30 30 31 32 33 33 34 34 34 35 35 35 35 36 36 36 37 37
28 28 28 29 29 29 29 29 27 26 25 25 25 25 26 27 28 29 29 29 29 29 29 30 31 32 32 33 34 34 34 35 35 35 35 36 36 36 36 37 37 37
28 28 29 29 29 29 29 28 27 26 26 26 26 27 27 29 29 30 30 30 30 30 31 32 33 33 34 34 35 35 35 36 36 36 36 36 37 36 37 37 37 37
28 28 28 28 28 28 27 27 26 26 27 27 28 28 29 30 30 30 31 31 31 32 33 34 34 34 35 36 36 36 36 37 37 37 37 37 37 37 37 37 37 38
28 28 27 27 27 26 26 26 27 27 28 28 29 29 30 30 31 31 32 32 33 34 35 36 36 36 36 37 37 37 37 37 37 37 37 37 37 38 38 38 39 39
28 27 27 27 27 26 26 27 28 28 29 29 30 30 30 31 31 32 33 34 34 36 37 38 39 38 38 38 38 38 37 37 37 37 37 37 37 38 39 39 40 41
28 28 28 27 27 27 28 29 29 29 30 30 31 31 31 31 32 34 35 35 36 37 39 40 41 40 39 39 38 38 38 38 38 38 38 38 38 39 40 41 42 43
26 25 25 25 26 26 27 28 29 30 30 30 31 31 31 32 34 35 36 36 38 39 41 42 43 42 40 40 39 39 38 38 38 39 39 40 41 41 42 43 43 45
24 24 24 24 24 25 25 27 28 29 30 31 31 32 32 33 35 36 36 38 39 41 43 44 44 42 41 40 40 39 39 39 40 40 41 42 43 43 44 44 44 45
23 24 24 25 25 25 25 26 27 29 30 31 32 32 33 34 36 37 38 40 41 43 44 45 44 42 41 41 40 41 41 41 42 42 42 43 43 44 44 45 45 45
23 24 24 25 25 26 26 27 28 29 30 31 32 33 34 36 37 39 40 41 43 45 45 45 42 41 41 41 42 42 42 43 43 43 43 43 44 44 45 45 46 46
24 24 25 25 25 26 27 28 29 30 31 32 33 34 36 37 39 40 42 43 44 46 45 43 41 41 42 42 42 43 43 43 43 43 43 44 44 45 45 46 46 47
26 26 26 26 26 27 28 29 29 30 31 33 34 36 37 39 40 42 43 44 45 45 42 41 41 42 42 43 43 43 43 43 43 43 44 44 44 45 45 46 46 47
27 28 28 28 27 28 28 29 30 31 32 34 35 37 38 39 41 42 44 44 43 42 40 41 41 42 42 42 42 42 42 42 43 43 44 44 44 45 45 46 47 47
29 29 29 29 28 28 28 29 30 31 33 34 35 37 37 39 41 42 43 42 40 40 40 41 41 41 41 41 41 41 42 42 42 43 43 43 44 45 45 46 47 48
29 29 28 27 27 28 29 30 31 32 33 34 35 36 37 38 40 40 39 38 38 39 40 40 40 40 40 40 40 40 41 41 41 42 42 43 44 44 45 46 47 48
28 27 27 27 28 30 31 32 32 33 34 34 34 36 37 38 38 37 36 37 38 39 39 39 38 38 38 39 39 39 40 40 41 41 42 42 43 43 44 45 45 46
28 28 29 30 31 32 33 33 33 33 34 35 35 36 36 35 34 34 35 36 37 37 37 37 37 37 37 38 38 38 39 39 40 40 41 41 42 42 43 43 44 44
28 30 32 34 35 35 34 33 33 34 35 35 34 33 32 31 32 33 34 35 35 35 35 35 36 36 37 37 37 37 38 38 39 39 40 40 41 41 42 42 43 44
29 31 32 33 34 34 34 34 35 35 33 31 29 28 29 30 31 32 33 33 34 34 34 34 35 35 36 36 36 36 37 37 38 38 39 39 40 41 41 42 42 43
27 28 28 29 31 32 33 33 33 30 27 26 26 27 28 29 30 31 31 32 32 32 33 33 34 34 34 34 35 35 36 36 36 37 37 38 38 39 39 40 41 41

ECMWFNIL_500_spd_120.txt.gz
Wind_Speed
23 24 24 24 23 22 21 19 18 17 17 17 17 18 19 20 20 21 21 22 22 23 24 25 26 27 28 29 29 30 30 31 31 31 31 31 31 32 32 33 33 33
26 26 25 24 23 22 20 19 18 18 18 19 19 20 21 21 21 22 22 23 24 25 25 26 27 28 29 30 30 31 31 31 32 32 32 32 33 33 34 34 35 35
28 26 24 24 22 21 20 19 19 19 20 21 21 21 22 22 22 23 23 24 25 25 26 27 28 29 30 30 30 30 31 31 32 32 33 33 34 35 35 35 36 36
28 26 24 23 22 21 21 20 20 20 21 22 22 22 23 23 23 24 24 25 26 26 27 27 28 29 29 29 29 30 31 32 32 33 34 35 35 36 36 37 37 37
27 25 24 23 22 22 22 21 22 22 23 23 23 23 23 24 24 25 25 26 26 27 27 28 29 29 28 28 29 30 31 33 34 35 36 36 37 37 37 37 37 37
24 23 24 24 24 24 23 23 24 24 24 25 25 25 25 26 26 26 27 27 27 28 28 29 29 29 28 29 30 31 33 34 36 36 37 38 38 39 38 38 38 38
23 23 23 24 25 26 26 26 26 26 26 27 27 27 27 27 27 27 28 28 28 29 29 30 30 29 30 31 32 33 34 36 37 38 39 39 40 40 40 40 39 38
24 24 24 25 26 27 27 27 27 28 28 28 28 28 28 28 28 28 29 29 30 30 31 31 31 31 31 32 34 35 36 37 38 39 40 40 41 41 40 40 39 39
25 26 26 27 27 28 28 28 28 28 28 28 28 28 29 29 29 30 31 31 31 32 32 32 32 32 33 34 35 36 37 38 39 40 40 41 41 40 40 39 39 39
28 28 28 29 29 28 28 28 28 28 28 28 28 28 29 30 31 31 32 32 32 33 33 33 33 34 34 35 36 37 39 40 40 41 41 41 41 40 39 39 39 39
30 31 30 30 29 29 29 28 28 28 28 29 29 30 30 31 32 32 32 33 33 34 34 34 35 35 35 36 37 39 40 41 42 42 42 42 41 40 39 39 39 39
31 32 32 31 30 29 29 29 29 29 29 30 30 30 31 31 32 32 33 33 34 34 35 35 36 36 36 37 38 40 41 42 42 42 42 41 40 40 40 40 41 41
30 31 31 30 30 30 30 29 29 29 30 30 30 30 31 31 32 32 33 34 34 35 36 36 36 37 37 38 39 41 42 42 42 42 41 41 41 41 42 42 43 44
31 32 31 31 31 30 29 29 29 29 29 30 30 31 31 32 32 33 33 34 35 36 36 36 37 38 38 39 40 42 42 42 42 42 42 42 42 43 43 44 45 45
29 29 30 30 29 28 29 29 30 30 31 31 32 32 32 32 33 33 34 35 35 36 37 37 38 39 39 40 42 43 43 42 43 43 43 43 44 44 45 45 45 46
28 26 27 28 28 29 30 31 31 31 32 32 32 32 32 33 34 34 35 35 36 37 37 38 39 39 40 41 43 43 43 43 43 43 44 44 45 45 45 45 46 46
30 28 27 28 29 29 30 30 30 31 31 31 32 33 33 34 34 35 36 36 37 38 38 39 39 39 41 42 43 43 43 43 43 43 44 44 45 45 45 45 45 45
29 27 27 28 28 29 29 29 30 31 32 33 34 34 35 35 35 35 36 36 37 38 38 39 39 40 41 42 42 42 42 42 43 44 44 44 45 44 44 44 44 44
27 26 26 27 28 28 29 30 32 33 34 35 35 35 35 35 35 36 36 37 38 38 38 38 39 40 41 41 41 41 41 42 43 43 44 44 44 43 43 43 44 44
26 26 27 27 28 30 31 33 35 36 36 36 35 35 35 35 35 36 37 37 38 38 38 38 39 40 40 40 40 40 41 42 42 43 43 43 42 42 42 43 43 44
26 27 28 29 31 32 34 35 36 35 35 35 34 34 35 36 36 37 38 38 38 38 38 38 39 38 38 39 39 40 40 41 41 41 41 41 41 41 42 43 43 44
26 28 30 31 33 34 34 34 34 34 34 34 34 35 36 37 38 38 38 38 38 38 37 37 37 37 37 38 38 39 39 40 40 40 40 40 40 41 42 43 43 44
26 28 30 31 31 32 31 31 32 33 34 36 37 38 38 37 37 38 38 38 37 35 34 35 35 36 36 37 37 38 38 38 39 39 39 40 40 41 42 42 43 43
27 28 29 30 30 30 30 31 32 34 36 36 37 36 36 36 37 37 36 34 32 32 32 33 34 35 35 36 37 37 37 38 38 38 39 39 40 41 41 42 42 43
28 29 29 30 30 30 31 32 33 33 32 31 31 32 33 34 34 33 31 30 29 30 31 32 33 34 34 35 36 36 36 37 37 38 38 39 40 40 41 41 42 42
27 28 28 28 29 30 31 31 30 28 28 29 29 30 30 29 28 27 27 27 28 29 30 32 32 33 33 34 35 35 35 36 36 37 38 39 40 40 40 41 40 40

ECMWFNIL_500_spd_123.txt.gz
Wind_Speed
17 16 15 15 14 15 16 17 17 17 17 18 19 19 19 19 19 18 18 18 18 18 19 19 20 21 22 23 24 25 26 27 27 28 28 29 29 30 31 31 32 34
16 16 16 16 17 18 18 17 17 17 17 19 20 20 20 19 19 19 18 18 18 19 20 20 21 22 23 24 25 25 26 27 27 27 28 29 30 31 32 33 34 36
16 16 17 18 18 18 17 17 18 18 19 20 20 20 20 19 19 19 19 19 20 20 21 22 23 24 25 25 25 26 26 27 27 28 29 30 31 33 34 35 37 37
16 17 18 18 17 17 17 18 19 20 20 21 21 20 20 20 20 20 20 21 21 22 23 23 24 25 26 27 27 27 27 28 28 29 30 32 34 35 36 37 38 38
16 18 19 17 16 16 17 19 20 21 21 21 21 21 21 21 21 21 22 22 23 24 24 25 26 27 28 28 28 28 28 29 30 31 32 34 35 36 37 38 38 39
17 18 17 16 16 17 18 20 21 22 22 22 22 22 22 22 22 23 23 24 24 25 25 26 27 28 29 29 29 30 30 30 31 32 33 35 36 37 38 39 39 40
16 16 16 16 17 18 19 21 22 22 23 23 23 23 23 23 24 24 24 24 25 25 26 27 29 29 30 30 30 31 31 32 33 34 35 36 38 38 39 40 41 41
16 16 16 17 18 20 21 22 23 24 24 24 24 24 24 25 25 25 25 25 25 26 28 29 30 30 30 31 32 32 33 33 34 35 36 37 39 40 41 42 42 42
19 18 19 20 21 22 23 24 25 25 25 25 25 25 26 26 26 26 25 26 27 28 30 31 31 31 32 33 33 34 34 35 35 36 37 38 40 42 42 42 42 42
22 21 22 23 24 24 25 26 27 27 26 26 27 27 27 27 27 27 27 27 29 31 31 32 32 33 34 34 35 35 35 35 36 37 38 40 42 42 43 43 42 42
23 23 24 26 26 27 27 28 29 28 28 27 27 27 27 27 28 28 28 29 31 31 32 33 34 34 35 35 36 36 36 36 37 38 40 42 42 42 43 43 42 42
23 24 26 27 28 28 28 28 28 28 28 27 27 27 27 28 29 29 29 30 31 32 33 34 35 36 36 36 37 37 37 38 39 40 41 42 42 43 43 43 43 43
24 26 28 29 28 28 28 29 28 27 26 26 26 27 27 28 28 29 30 31 32 34 35 36 36 36 37 37 37 38 39 39 40 41 42 42 42 43 44 44 44 44
25 27 29 29 28 28 29 30 29 27 26 26 26 27 28 29 29 30 31 33 34 35 36 36 37 37 37 38 39 39 40 41 41 42 42 42 43 44 45 45 45 45
25 27 28 27 27 27 27 27 27 27 26 25 26 27 29 30 31 32 33 34 35 35 36 37 37 38 39 39 39 40 41 41 42 42 42 43 44 45 45 45 46 46
25 27 29 29 28 27 26 24 24 24 25 26 27 29 30 30 31 33 34 34 35 36 37 38 38 39 40 40 40 41 41 42 42 42 43 44 45 45 45 45 46 46
26 27 29 30 29 27 25 25 25 25 26 28 29 30 30 30 32 33 34 35 37 38 39 40 40 40 40 40 41 41 41 41 42 42 43 44 44 44 45 45 46 46
24 25 26 27 27 26 25 25 26 27 29 30 29 29 29 31 33 34 36 38 39 39 40 40 40 40 40 41 41 41 41 41 41 42 43 43 43 44 44 45 45 45
17 18 19 21 23 24 24 25 26 27 28 28 28 29 30 33 35 37 38 39 39 39 39 39 40 40 41 41 41 41 41 41 41 41 41 42 42 43 44 44 44 44
14 14 16 18 20 22 24 26 26 26 27 28 29 31 33 35 37 38 38 38 38 38 39 40 40 41 41 41 41 40 40 39 39 39 40 41 42 43 43 43 43 43
15 15 16 17 19 21 23 25 26 27 29 30 32 34 35 36 36 36 37 37 39 39 40 40 40 40 40 39 39 38 37 37 37 38 39 40 41 41 41 41 42 42
17 16 17 18 19 21 23 25 27 28 30 31 32 33 33 33 34 36 37 38 38 37 36 36 37 37 37 36 35 34 34 35 36 37 39 40 40 40 40 41 41 42
17 17 18 19 20 22 24 26 27 28 29 30 31 31 32 34 35 36 36 34 33 32 32 33 34 33 33 32 32 32 33 34 35 37 38 38 39 39 39 40 41 42
17 18 19 20 22 23 24 26 27 28 29 29 30 32 33 34 34 33 31 30 30 31 31 30 30 29 29 29 30 31 32 33 35 36 37 37 38 38 39 40 41 42
18 19 20 21 23 24 25 26 27 28 28 30 31 33 33 33 32 31 29 29 28 28 27 27 27 27 28 29 30 31 32 33 35 35 36 36 37 38 39 40 41 41
19 20 21 22 24 24 25 26 27 28 29 30 31 31 31 30 29 27 26 25 25 25 25 25 25 26 27 28 29 30 31 33 34 35 36 36 37 38 39 40 40 41

ECMWFNIL_500_spd_126.txt.gz
Wind_Speed
11 12 11 9 7 7 7 8 9 11 13 13 11 11 13 15 16 17 19 20 20 21 21 21 21 22 22 23 23 24 24 25 26 26 27 28 28 29 29 29 30 32
12 12 10 8 8 8 10 11 12 11 11 11 11 12 14 15 17 18 19 20 21 22 21 22 22 23 23 24 25 25 25 26 27 27 28 29 29 29 30 31 32 33
12 11 10 9 9 10 11 12 11 10 10 11 12 13 14 15 17 19 20 21 21 22 23 23 23 24 24 25 26 26 26 27 28 29 30 30 30 31 31 32 33 35
13 12 11 11 10 10 11 11 10 9 10 12 13 13 14 16 18 19 20 22 23 23 24 24 24 25 25 26 27 27 28 29 30 31 31 31 31 32 33 33 35 36
13 12 12 12 11 11 11 11 11 10 11 12 13 14 16 17 18 20 22 23 24 25 25 25 25 25 26 27 28 29 30 31 32 32 32 33 33 34 34 35 36 37
15 14 14 13 12 12 12 12 12 12 13 13 15 16 16 18 19 21 23 24 25 25 25 25 26 26 27 28 29 30 31 32 33 33 34 34 35 35 36 36 37 38
16 16 15 14 13 13 12 13 13 13 14 15 16 16 17 18 21 23 24 25 25 26 26 26 27 28 29 29 30 32 33 33 34 35 36 36 36 36 36 37 38 40
16 16 15 14 13 13 13 13 13 14 16 17 17 18 18 20 22 24 25 26 26 27 27 28 28 29 30 31 32 33 34 34 35 36 37 37 37 37 37 38 40 42
16 17 17 16 15 15 15 14 15 16 17 18 19 20 21 22 24 25 26 27 27 28 28 29 30 31 32 32 33 34 35 36 37 37 38 38 38 38 39 40 42 43
17 18 18 18 18 18 17 17 18 18 18 18 20 21 23 25 26 26 26 27 28 28 29 30 31 32 32 33 34 35 36 37 38 38 38 39 39 40 41 42 43 44
17 18 19 20 20 20 20 21 21 21 20 20 21 23 25 27 27 27 27 28 29 29 30 30 31 32 33 34 35 36 37 37 38 39 39 40 40 41 42 43 44 43
17 19 20 20 21 21 21 22 22 21 22 22 23 25 27 27 27 27 28 29 29 29 30 30 31 32 33 34 35 36 37 38 39 40 40 41 42 42 43 44 44 43
16 18 20 21 21 22 22 22 22 23 24 24 25 28 29 28 27 27 28 29 29 29 30 31 32 33 34 34 35 37 38 39 40 41 41 42 42 43 43 44 43 43
16 18 19 20 21 21 22 22 23 25 25 25 26 28 29 27 27 28 28 29 29 30 31 32 33 33 34 35 37 38 39 40 40 41 41 42 42 43 44 44 43 44
18 19 19 19 19 20 22 24 24 24 24 24 26 27 26 25 26 27 28 29 29 30 31 32 33 34 35 37 38 39 39 39 40 41 41 42 43 43 43 43 43 44
22 22 20 19 19 21 23 25 25 24 24 25 26 27 26 25 26 27 28 29 30 31 31 32 34 35 36 37 38 38 39 40 41 41 42 42 42 42 42 42 43 43
25 24 21 20 22 23 24 25 26 26 26 27 27 27 27 27 27 28 29 30 30 31 32 33 35 36 36 37 37 39 40 41 42 42 41 41 41 41 41 41 42 43
20 20 20 20 22 22 23 24 25 25 26 27 27 27 27 27 28 28 29 30 31 32 33 34 35 36 36 37 39 40 41 41 40 40 39 38 38 39 39 40 41 42
15 16 17 18 18 18 19 20 21 23 25 26 26 26 26 27 27 28 29 30 31 32 33 35 35 36 37 38 39 38 38 37 36 36 36 36 37 38 39 40 41 42
14 14 15 16 16 17 17 17 18 20 22 23 24 25 26 27 27 29 30 31 32 32 33 35 36 37 37 37 36 35 35 34 34 33 34 35 36 37 38 40 41 42
15 15 16 17 17 18 18 18 18 19 20 22 23 25 26 27 28 29 30 31 31 32 34 35 36 36 36 35 34 33 32 31 31 32 33 35 36 37 38 39 40 41
16 17 18 18 19 19 19 19 19 20 21 23 24 26 27 28 29 29 29 30 31 33 34 36 36 35 33 32 31 30 29 30 31 32 33 35 36 37 38 39 39 40
17 18 19 19 19 19 19 19 20 21 22 23 25 26 26 27 28 28 29 31 32 33 33 33 33 31 29 28 28 28 28 29 31 32 33 34 35 36 37 38 39 40
19 19 19 19 19 19 20 20 21 22 22 23 24 25 26 26 27 28 29 29 29 29 29 29 28 27 26 26 26 27 29 30 31 32 33 34 35 36 37 38 39 40
20 19 19 20 20 20 21 21 22 22 23 23 24 24 25 25 26 26 26 26 25 26 26 26 25 25 25 25 26 28 29 31 31 32 33 34 35 36 37 38 39 40
19 19 20 20 21 21 21 22 22 22 22 22 22 22 23 23 23 23 23 23 24 24 24 24 24 24 24 25 27 28 30 30 31 32 33 34 35 36 37 38 39 40

ECMWFNIL_500_spd_129.txt.gz
Wind_Speed
21 21 19 17 17 16 15 14 12 11 9 8 9 10 11 12 12 11 11 12 13 15 16 17 18 19 21 22 22 23 24 26 27 28 28 28 29 30 31 32 32 33
22 20 17 16 15 15 15 14 13 12 11 10 10 11 11 11 11 11 12 13 15 16 17 18 19 21 22 23 24 25 26 27 28 28 28 29 30 31 32 33 33 34
21 17 15 15 14 15 15 15 14 13 12 11 11 11 11 11 10 11 13 14 16 17 18 19 21 22 23 24 25 26 27 28 29 29 29 30 31 33 34 34 35 36
18 16 15 14 14 15 15 15 14 13 12 12 11 10 10 10 11 12 14 16 17 18 19 21 22 24 25 26 26 27 28 30 30 30 30 31 33 34 35 35 36 37
17 15 14 13 13 14 14 14 13 12 13 13 11 10 10 11 12 14 16 17 18 19 21 23 24 25 26 26 27 28 30 30 31 31 32 33 34 35 36 36 37 38
17 15 14 14 14 15 15 14 13 13 13 12 10 10 11 13 15 16 17 18 19 21 23 24 25 26 26 27 28 30 31 31 31 32 33 34 35 36 37 37 38 38
15 15 15 15 16 16 15 14 14 14 13 11 10 11 13 15 17 18 18 19 21 23 24 25 26 26 27 28 29 30 31 32 32 33 34 35 36 36 37 37 38 39
14 14 15 16 17 17 17 16 15 14 11 10 11 12 15 17 18 18 20 21 23 24 25 25 26 26 27 28 29 30 31 32 32 33 34 35 36 36 37 38 39 40
13 15 16 17 18 19 18 17 15 13 11 11 13 15 17 18 18 19 21 23 25 26 26 26 26 27 28 28 29 30 31 31 32 33 34 35 35 36 37 38 40 41
14 15 16 17 18 19 20 19 15 13 13 14 15 17 19 19 19 20 21 23 25 26 27 27 27 27 28 29 30 30 31 31 32 33 34 35 36 37 38 39 40 41
14 16 17 17 19 20 20 19 17 16 17 17 18 20 21 21 21 22 24 25 26 27 27 27 27 28 28 29 30 30 31 31 32 33 34 36 37 38 39 40 40 41
15 16 18 19 20 20 20 19 19 20 21 21 22 22 22 23 24 25 25 26 27 27 27 27 27 28 28 29 29 30 31 32 33 34 36 36 37 38 39 41 42 42
16 17 18 19 20 20 20 21 22 23 23 24 24 24 23 24 25 25 25 26 26 26 26 27 27 27 28 29 30 30 31 33 34 35 36 36 37 39 41 41 42 42
16 17 18 19 19 19 20 22 23 23 24 25 25 25 24 24 24 24 25 24 23 24 26 27 27 28 28 29 30 31 33 34 35 35 36 37 39 40 40 40 40 39
17 17 19 19 19 20 21 22 22 23 24 24 25 25 24 23 23 24 25 24 24 26 27 27 27 28 29 30 31 33 34 34 35 36 37 38 38 39 39 38 38 37
18 18 19 21 22 23 23 22 21 22 23 24 25 25 24 24 25 25 26 27 27 27 27 27 28 29 30 31 33 34 34 34 35 36 36 37 37 38 37 36 35 35
20 20 22 24 26 25 25 24 23 23 24 25 25 25 25 26 26 26 27 27 27 27 27 28 29 30 32 33 33 34 34 34 35 35 36 36 36 36 34 34 34 36
20 21 22 23 24 22 22 25 26 25 25 26 25 24 25 27 26 25 27 26 26 26 27 29 30 31 32 32 33 33 34 34 34 35 35 35 33 32 32 33 35 36
20 20 19 19 19 16 18 23 25 24 24 24 22 22 25 26 25 25 26 26 25 26 28 30 31 31 31 31 32 32 33 33 33 33 32 31 31 31 33 34 35 37
20 19 18 18 18 16 17 20 21 21 21 20 19 21 24 24 24 24 25 25 26 27 29 30 30 30 30 30 31 31 31 30 30 29 29 29 30 32 33 34 36 37
20 18 18 19 18 17 17 18 19 19 19 19 18 20 21 21 22 23 24 25 27 28 29 29 29 29 29 28 28 28 27 27 27 27 27 29 30 32 33 35 36 38
20 18 18 19 18 18 18 19 19 19 19 19 19 19 20 21 22 23 24 26 27 27 28 28 27 27 25 25 25 26 26 26 26 26 28 29 31 32 34 36 37 39
19 19 19 19 19 19 19 19 19 18 19 19 20 20 21 22 23 24 25 26 26 26 25 24 24 23 23 24 25 25 25 25 25 26 28 30 32 33 35 36 38 40
20 20 20 20 20 20 20 19 19 19 20 20 21 22 22 23 24 25 24 24 24 23 22 21 21 22 23 24 24 24 24 24 26 27 29 31 32 34 35 37 39 40
20 20 20 21 21 21 20 19 20 20 21 21 22 23 23 24 24 23 22 21 20 20 20 20 21 22 23 23 23 23 24 25 27 29 30 32 33 35 36 38 39 40
19 20 21 22 21 21 20 20 21 21 22 22 23 23 23 23 21 21 20 19 19 19 20 21 22 22 22 23 23 24 25 26 28 29 31 32 34 35 37 38 39 40

ECMWFNIL_500_spd_132.txt.gz
Wind_Speed
22 23 24 23 22 23 24 23 21 18 16 16 16 16 17 18 19 19 18 17 15 14 14 14 15 16 16 17 18 19 20 21 23 24 26 27 28 29 29 29 30 31
23 25 25 24 23 24 23 20 18 16 16 16 16 16 17 18 19 19 17 16 15 14 14 15 16 16 17 18 19 20 21 23 25 26 28 28 29 29 29 30 31 32
24 25 25 23 23 23 21 18 16 16 16 16 16 16 17 18 18 17 16 15 15 15 15 16 16 17 18 19 20 21 23 25 26 28 28 29 29 29 30 31 31 32
23 24 24 23 21 20 18 17 17 17 17 17 16 16 17 18 18 17 16 15 15 16 16 17 17 18 19 21 22 23 24 26 27 28 29 29 30 30 30 31 32 32
21 22 23 22 20 19 18 17 17 18 18 17 17 18 18 18 17 16 16 16 16 16 16 17 18 20 21 22 23 24 25 27 27 28 29 29 30 30 31 32 32 33
20 20 21 20 20 19 18 17 17 17 17 17 18 18 18 18 17 16 15 15 15 16 16 18 19 21 22 23 24 25 26 27 28 28 29 29 30 30 31 32 32 33
20 20 19 19 19 19 18 16 15 16 17 17 17 17 18 17 16 15 14 14 15 16 17 19 20 22 23 24 25 26 27 27 28 28 29 29 30 31 31 32 32 34
18 18 18 18 18 18 17 16 15 16 17 18 17 17 18 17 15 15 14 15 16 17 18 19 21 23 24 26 27 27 28 28 28 29 29 30 30 31 32 32 33 35
16 17 17 18 18 17 17 16 16 17 18 17 17 17 17 17 16 16 16 16 17 18 19 20 21 23 25 26 27 27 28 28 28 29 29 30 31 31 32 33 35 36
16 17 17 17 17 17 17 17 17 18 18 17 17 18 18 18 18 18 18 18 19 20 21 22 24 25 26 27 27 27 27 28 28 29 30 30 31 32 33 35 36 36
16 17 18 17 16 16 16 16 18 18 18 19 19 20 21 21 21 21 20 20 21 23 24 25 25 26 27 27 26 26 27 28 29 30 30 31 32 33 34 35 35 35
18 19 19 18 16 16 16 17 18 19 20 20 21 22 23 23 23 23 23 23 24 25 26 27 27 27 26 24 24 25 27 28 29 30 31 32 33 34 35 35 35 35
21 20 19 17 16 16 16 16 17 19 20 21 22 23 23 24 24 24 24 25 26 26 27 28 28 26 24 23 24 26 27 29 29 30 32 33 34 34 34 34 34 34
20 19 17 16 16 15 15 16 17 19 20 21 22 22 23 23 23 23 23 25 26 27 27 27 25 23 23 24 26 27 27 28 30 31 33 34 34 34 33 33 33 33
18 17 15 14 14 14 15 16 17 18 19 20 22 22 21 21 21 21 22 24 26 28 29 29 27 26 26 26 26 27 28 29 31 33 33 33 33 33 33 32 32 31
18 16 15 14 14 15 16 17 18 20 20 21 22 22 20 20 21 21 22 24 26 28 30 29 28 27 27 26 27 27 29 31 32 32 32 32 32 31 31 30 30 30
18 17 17 16 17 18 19 18 20 22 22 22 23 22 22 23 24 24 26 27 27 28 29 29 28 27 27 27 28 29 30 31 31 31 31 30 30 29 29 28 28 29
20 19 19 20 21 22 23 21 21 22 22 21 20 21 24 26 26 27 27 27 26 27 28 27 27 27 27 27 28 29 29 30 30 29 29 28 27 27 27 27 28 29
20 20 19 21 21 22 23 23 22 22 21 20 20 21 23 25 26 27 27 27 27 28 27 26 25 26 26 27 27 28 28 28 27 27 26 26 26 26 26 27 29 30
21 20 19 20 20 21 22 22 21 21 19 19 20 21 22 23 24 26 26 26 26 26 25 24 25 25 26 26 26 26 26 25 25 25 25 26 25 26 27 28 30 31
22 21 21 20 20 21 21 21 21 19 17 18 19 19 20 21 22 22 23 23 23 23 24 24 24 24 25 25 24 24 23 23 24 24 25 25 25 27 28 29 31 33
23 22 22 21 21 21 21 20 19 18 18 18 19 19 19 20 20 21 21 21 22 22 23 23 23 23 22 22 22 22 22 23 24 24 24 25 26 28 29 30 32 34
23 23 23 22 22 22 21 20 19 19 20 20 20 20 20 20 20 20 20 21 21 22 22 21 21 20 20 20 20 21 22 23 23 24 25 26 27 29 30 32 34 36
24 24 24 24 23 22 21 20 21 21 21 21 22 21 21 20 20 20 21 21 21 21 20 19 19 19 19 20 20 21 22 22 23 25 26 27 28 30 31 33 35 37
25 26 25 23 21 21 21 21 21 21 22 22 22 21 20 20 21 21 21 21 21 20 19 18 18 18 19 20 20 21 22 23 24 25 27 28 30 31 33 34 36 37
25 27 25 21 19 20 21 20 21 21 22 22 21 21 21 21 21 21 21 21 19 19 18 18 18 19 19 20 20 21 22 23 25 26 28 29 31 32 34 35 36 37

ECMWFNIL_500_spd_135.txt.gz
Wind_Speed
23 22 24 26 27 27 25 25 25 23 22 22 21 20 19 19 19 20 21 20 19 18 19 19 20 19 19 18 19 20 21 22 23 24 24 25 25 26 27 29 30 31
22 22 24 25 27 27 26 25 25 23 21 20 20 19 19 20 21 21 20 19 18 19 20 20 20 19 19 19 20 21 22 23 24 25 26 26 27 28 29 30 31 32
22 23 24 26 27 26 25 24 23 22 20 19 19 18 19 20 20 19 18 19 19 20 21 21 20 19 20 21 22 23 24 25 26 27 27 28 28 29 30 30 31 32
23 24 25 26 26 26 25 24 22 20 19 18 17 17 18 19 18 18 18 19 20 21 21 21 20 20 21 23 24 25 25 26 27 27 28 28 29 30 30 30 31 32
23 24 25 26 25 25 25 23 21 19 18 17 17 17 18 18 18 18 18 19 20 21 21 20 20 21 22 23 24 25 25 26 27 28 29 29 30 30 30 31 31 31
23 23 24 24 23 23 23 22 21 19 17 17 16 17 18 18 18 18 18 19 20 20 20 20 20 21 22 23 24 25 25 26 27 28 29 30 30 30 30 31 31 31
22 23 24 25 24 22 20 19 19 18 18 17 17 18 18 18 18 18 18 19 19 19 19 19 20 21 22 23 23 24 25 26 27 28 29 29 29 29 30 30 31 32
22 23 24 25 24 21 18 18 18 19 18 17 17 18 18 18 18 18 19 18 18 19 19 20 20 21 22 23 23 24 25 26 28 28 28 28 28 28 29 30 32 33
22 22 22 22 21 20 18 17 18 18 17 17 17 18 18 18 18 19 19 18 19 19 20 21 21 22 24 24 25 26 26 27 28 28 27 26 26 28 29 31 32 33
22 21 20 20 19 18 17 16 17 18 18 17 18 18 18 18 19 20 20 20 20 20 21 22 24 25 26 26 27 27 28 29 29 27 25 25 27 28 30 31 32 33
23 20 20 19 17 16 16 16 17 18 19 19 19 19 20 20 21 21 21 21 21 21 23 24 25 26 27 27 27 28 29 30 28 26 26 27 28 29 30 31 32 33
22 20 20 19 17 16 16 17 18 19 19 20 20 20 21 21 22 22 21 21 21 22 23 23 24 25 26 27 27 27 27 27 26 27 28 28 28 29 30 31 32 33
20 20 20 18 16 16 16 16 17 18 18 18 19 19 21 22 22 22 21 21 21 22 21 21 22 23 25 26 27 28 27 26 26 27 27 27 28 29 30 31 32 32
18 20 19 16 15 15 15 16 16 16 16 16 17 18 19 21 21 21 21 21 21 20 20 21 21 23 24 26 28 28 28 27 27 27 27 28 29 30 30 31 30 29
18 20 19 15 14 14 15 15 15 14 14 15 16 17 18 20 20 21 21 21 20 20 20 22 22 24 26 27 28 29 28 27 27 28 28 29 29 29 29 28 28 28
19 20 18 15 14 15 16 16 16 15 15 15 16 17 18 20 21 22 22 22 21 21 22 24 25 26 27 27 28 28 27 27 27 28 28 28 28 28 27 27 27 27
20 21 18 15 15 17 18 18 17 16 16 16 16 17 19 21 23 24 24 24 24 24 25 27 27 27 27 27 27 26 25 26 27 27 27 27 26 25 25 26 26 26
20 22 21 18 17 18 18 19 20 21 20 18 17 18 20 22 23 24 24 24 24 24 25 26 26 26 26 26 25 24 25 26 26 26 25 24 24 24 25 25 26 26
19 22 23 20 18 17 18 20 23 23 21 18 18 20 21 22 22 22 21 21 22 22 23 24 24 24 24 24 24 24 25 25 24 24 23 23 23 23 24 24 25 27
19 20 21 19 17 18 19 20 20 19 18 18 19 20 20 21 21 20 19 19 20 21 21 22 22 22 22 23 23 24 24 23 22 22 22 22 22 23 23 25 26 28
19 19 20 20 20 20 20 19 18 17 18 20 20 20 20 19 18 18 18 19 20 20 20 20 20 21 22 23 23 22 21 21 21 21 21 22 22 23 24 25 27 29
19 20 21 22 23 22 21 20 19 19 20 20 20 20 19 18 18 18 19 20 20 19 19 20 20 21 22 22 21 20 20 20 21 21 21 21 22 23 25 26 28 29
22 22 23 25 25 23 21 20 20 20 21 20 20 20 19 19 19 20 20 20 19 19 20 20 21 21 21 20 19 19 20 20 20 20 20 21 22 24 26 27 28 29
25 24 24 24 24 22 21 21 22 22 22 21 20 20 20 20 20 20 20 20 19 19 20 20 20 19 19 18 18 19 20 20 20 19 20 21 23 25 26 27 29 30
25 25 24 23 23 23 23 23 23 23 22 21 20 20 20 20 20 20 19 19 19 19 19 19 18 18 17 18 18 19 20 19 19 19 20 22 24 25 26 28 29 30
24 24 23 23 23 23 23 23 22 22 21 20 20 20 20 20 19 19 19 19 19 19 18 18 17 17 17 18 19 20 19 19 19 19 21 23 24 25 27 28 30 31

ECMWFNIL_500_spd_138.txt.gz
Wind_Speed
27 26 25 26 28 29 28 27 27 28 29 30 27 26 26 24 21 19 19 20 20 21 20 19 19 18 18 19 20 21 22 22 23 24 25 26 27 29 30 31 32 32
26 26 24 26 28 28 27 27 27 27 28 28 26 26 26 24 22 20 20 21 22 20 19 18 17 17 18 19 20 21 22 24 25 25 26 27 29 30 31 32 32 32
23 24 24 26 27 26 26 26 28 28 26 25 24 23 24 23 21 21 21 22 21 19 18 17 17 18 19 20 21 22 24 25 25 26 27 28 30 31 31 32 32 32
20 21 22 25 26 25 25 25 27 28 26 23 23 23 22 22 21 21 21 20 19 17 17 17 18 19 20 21 22 24 25 25 26 26 28 28 29 30 31 32 33 33
20 19 21 24 24 24 24 23 26 29 26 24 25 24 21 20 19 19 19 18 17 17 17 17 18 19 20 22 23 24 25 25 25 26 27 27 28 29 31 32 31 30
20 20 19 21 23 23 23 23 26 28 25 25 26 23 19 18 18 18 17 17 16 16 17 17 18 19 21 22 23 24 24 24 25 26 26 27 28 29 30 29 28 27
20 21 19 19 22 22 22 24 26 26 25 26 25 20 17 16 16 16 17 16 16 16 17 17 19 20 21 22 22 23 23 24 25 26 27 27 28 29 28 27 26 27
20 21 21 21 22 22 22 23 24 25 26 27 24 20 17 15 16 17 16 16 17 17 17 18 19 21 21 21 22 23 24 25 26 27 28 29 30 30 29 27 28 29
20 21 22 22 21 21 22 23 24 24 24 24 22 19 16 15 16 16 16 17 17 17 18 19 20 20 21 21 23 24 25 27 27 27 27 28 29 29 28 28 30 30
22 23 22 21 21 21 23 24 24 23 22 21 20 17 14 14 15 16 17 18 18 18 19 20 20 20 21 22 24 25 27 27 27 26 26 27 27 27 28 29 30 30
24 24 22 22 21 22 24 25 23 21 19 19 17 14 13 14 15 17 18 18 18 19 20 20 20 21 22 23 24 25 25 26 26 26 27 28 27 27 28 28 29 29
21 22 23 23 22 24 24 22 19 17 16 15 14 14 15 15 16 17 18 19 19 20 20 21 22 22 22 23 23 23 23 23 24 25 26 27 27 26 27 27 28 28
19 21 23 23 23 24 23 19 16 15 14 13 13 14 15 16 17 18 19 20 20 21 21 22 23 22 22 22 21 22 23 24 24 25 26 26 26 26 26 26 27 26
16 19 21 22 22 22 20 17 15 13 13 14 14 15 16 16 17 18 20 20 21 22 22 23 23 22 22 21 21 23 24 25 26 27 27 26 25 25 26 26 25 24
14 15 18 21 20 19 17 15 14 13 14 15 15 16 16 16 17 18 19 20 21 22 23 23 23 23 22 22 23 25 26 26 27 27 26 25 25 25 25 24 24 23
14 14 15 17 19 18 16 14 14 14 15 16 16 16 15 16 17 18 18 20 21 22 23 24 24 23 23 24 26 27 27 28 28 27 25 25 24 24 23 23 23 23
15 15 15 16 18 19 17 16 15 16 16 16 16 16 16 17 17 17 18 20 21 23 24 25 25 24 25 26 27 27 27 27 26 25 24 23 23 23 22 23 23 23
15 16 17 17 18 20 19 17 16 17 17 18 18 18 19 19 19 19 19 20 20 22 23 23 23 23 24 25 25 25 25 24 24 23 23 22 22 22 22 22 22 22
16 17 17 18 20 22 22 18 17 17 18 19 20 21 22 22 21 20 20 20 20 20 20 20 21 21 22 23 23 22 22 22 22 22 22 21 21 22 22 22 21 21
18 18 18 18 20 23 25 21 18 18 18 19 20 20 20 20 20 20 20 20 19 18 18 19 20 21 21 21 21 21 21 21 21 21 21 21 21 21 21 20 20 21
20 19 19 19 19 20 21 20 18 18 18 19 20 19 19 19 20 20 20 20 19 18 18 18 19 20 20 20 21 21 21 21 20 20 20 20 21 21 20 20 21 22
20 20 19 19 19 19 19 19 19 19 21 21 21 21 20 20 20 20 19 19 19 19 19 19 20 20 21 21 21 21 21 20 20 20 20 20 20 20 19 20 22 23
21 21 20 20 20 20 20 21 21 22 22 23 23 22 22 22 21 20 19 19 19 20 20 20 20 21 21 21 21 21 20 20 19 20 20 20 20 19 20 21 22 24
22 22 22 22 22 23 23 23 23 23 23 23 23 23 23 24 23 21 20 20 20 21 21 21 21 21 21 22 21 21 20 20 20 20 20 20 20 20 20 21 23 24
24 24 25 24 24 25 24 24 24 24 24 24 23 23 24 24 23 22 21 21 21 21 21 21 21 21 22 22 21 20 20 20 20 20 20 20 20 20 21 22 23 25
25 25 26 27 27 26 25 24 24 25 26 25 24 24 23 22 22 21 21 21 21 21 21 21 21 21 22 22 21 20 20 20 20 20 20 20 20 20 21 23 24 26